Weather History for Clyde, NU

Change the Weather History Date:

Friday, October 28, 2011

  Actual Average Record
Temperature  
Mean Temperature 24 °F -  
Max Temperature 26 °F 8 °F 33 °F (2012)
Min Temperature 21 °F -4 °F -5 °F (2000)
Degree Days  
Heating Degree Days 40    
Moisture  
Dew Point 20 °F    
Average Humidity 80    
Maximum Humidity 93    
Minimum Humidity 56    
Precipitation  
Precipitation 0.00 in 0.03 in - ()
Sea Level Pressure  
Sea Level Pressure 29.85 in    
Wind  
Wind Speed 28 mph ()    
Max Wind Speed 44 mph    
Max Gust Speed 47 mph    
Visibility 3.1 miles    
Events Snow    
Averages and records for this station are not official NWS values.
T = Trace of Precipitation, MM = Missing Value Source: Averaged Metar Reports

Daily Weather History Graph

Daily Weather History Graph

Search for Another Location

Airport:

Trip Planner

Search our weather history database for the weather conditions in past years. The results will help you decide how hot, cold, wet, or windy it might be!

Date:

Astronomy

Oct. 28, 2011 Rise Set
Actual Time 9:48 AM ADT 4:45 PM ADT
Civil Twilight 8:36 AM ADT 5:57 PM ADT
Nautical Twilight 7:21 AM ADT 7:12 PM ADT
Astronomical Twilight 6:09 AM ADT 8:24 PM ADT
Moon No Moon Rise No Moon Set
Length of Visible Light 9h 21m
Length of Day
6h 56m
Waxing Crescent, 5% of the Moon is Illuminated
Oct 28
Waxing Crescent
Nov 2
First Quarter
Nov 10
Full
Nov 18
Last Quarter
Nov 25
New

Hourly Weather History & Observations

Time (ADT) Temp. Windchill Dew Point Humidity Pressure Visibility Wind Dir Wind Speed Gust Speed Precip Events Conditions
12:00 AM 25 °F - 19 °F 70% 29.87 in 5 mi SW 26.5 mph - -  
12:00 AM 24.8 °F 8.7 °F 19.4 °F 80% 29.87 in 5.0 mi SW 26.5 mph 35.7 mph N/A   Clear
12:37 AM 24.8 °F 7.6 °F 21.2 °F 86% 29.84 in 2.2 mi SW 31.1 mph 40.3 mph N/A   Clear
12:41 AM 24.8 °F 7.1 °F 21.2 °F 86% 29.83 in 1.4 mi SW 33.4 mph 40.3 mph N/A   Clear
12:49 AM 24.8 °F 6.6 °F 21.2 °F 86% 29.84 in 1.0 mi SW 35.7 mph 42.6 mph N/A   Clear
12:58 AM 24.8 °F 8.1 °F 21.2 °F 86% 29.84 in 1.8 mi SW 28.8 mph 41.4 mph N/A   Clear
1:00 AM 24.8 °F 7.6 °F 21.2 °F 86% 29.86 in 2.4 mi SW 31.1 mph 40.3 mph N/A   Clear
1:12 AM 24.8 °F 7.6 °F 19.4 °F 80% 29.84 in 6.0 mi SW 31.1 mph 36.8 mph N/A   Clear
1:30 AM 24.8 °F 6.6 °F 19.4 °F 80% 29.85 in 2.5 mi SSW 35.7 mph - N/A   Clear
1:46 AM 24.8 °F 7.1 °F 21.2 °F 86% 29.84 in 1.4 mi SW 33.4 mph 39.1 mph N/A   Clear
2:00 AM 24.8 °F 6.8 °F 19.4 °F 80% 29.87 in 2.5 mi SW 34.5 mph - N/A   Clear
2:08 AM 24.8 °F 6.4 °F 21.2 °F 86% 29.86 in 1.4 mi SSW 36.8 mph - N/A   Clear
2:16 AM 24.8 °F 5.7 °F 21.2 °F 86% 29.85 in 1.0 mi SSW 40.3 mph - N/A   Clear
2:17 AM 24.8 °F 6.2 °F 21.2 °F 86% 29.85 in 0.8 mi SSW 38.0 mph - N/A   Mostly Cloudy
2:21 AM 26.6 °F 9.3 °F 21.2 °F 80% 29.85 in 0.8 mi SSW 34.5 mph 41.4 mph N/A   Clear
2:33 AM 24.8 °F 6.0 °F 19.4 °F 80% 29.85 in 0.6 mi SW 39.1 mph 47.2 mph N/A   Mostly Cloudy
2:51 AM 24.8 °F 5.5 °F 19.4 °F 80% 29.84 in 0.6 mi SSW 41.4 mph - N/A   Overcast
3:00 AM 25 °F - 20 °F 72% 29.86 in 1 mi SW 40.3 mph - -   Overcast
3:00 AM 24.8 °F 6.4 °F 19.4 °F 80% 29.86 in 0.8 mi SW 36.8 mph 46.0 mph N/A Snow Light Snow
3:01 AM 24.8 °F 6.4 °F 19.4 °F 80% 29.84 in 1.0 mi SW 36.8 mph 44.9 mph N/A   Overcast
3:10 AM 24.8 °F 6.8 °F 19.4 °F 80% 29.84 in 1.0 mi SSW 34.5 mph 43.7 mph N/A   Scattered Clouds
3:12 AM 24.8 °F 6.8 °F 19.4 °F 80% 29.84 in 1.1 mi SSW 34.5 mph 43.7 mph N/A   Clear
3:25 AM 26.6 °F 10.0 °F 21.2 °F 80% 29.85 in 2.5 mi SSW 31.1 mph 40.3 mph N/A   Clear
3:45 AM 24.8 °F 7.3 °F 19.4 °F 80% 29.84 in 3.5 mi SSW 32.2 mph 39.1 mph N/A   Clear
3:47 AM 24.8 °F 6.4 °F 19.4 °F 80% 29.84 in 2.4 mi SSW 36.8 mph - N/A   Clear
4:00 AM 26.6 °F 9.8 °F 21.2 °F 80% 29.86 in 2.0 mi SW 32.2 mph 41.4 mph N/A   Clear
4:12 AM 26.6 °F 9.6 °F 19.4 °F 74% 29.85 in 3.0 mi SSW 33.4 mph 39.1 mph N/A   Clear
4:17 AM 26.6 °F 9.8 °F 19.4 °F 74% 29.85 in 2.5 mi SSW 32.2 mph 39.1 mph N/A   Clear
4:54 AM 24.8 °F 6.8 °F 21.2 °F 86% 29.82 in 2.4 mi SW 34.5 mph 41.4 mph N/A   Clear
4:57 AM 24.8 °F 7.1 °F 21.2 °F 86% 29.83 in 1.2 mi WSW 33.4 mph 41.4 mph N/A   Clear
5:00 AM 24.8 °F 7.9 °F 21.2 °F 86% 29.85 in 1.1 mi SW 29.9 mph 41.4 mph N/A   Clear
5:07 AM 24.8 °F 6.2 °F 21.2 °F 86% 29.83 in 1.0 mi SSW 38.0 mph 46.0 mph N/A   Clear
5:11 AM 24.8 °F 6.0 °F 21.2 °F 86% 29.83 in 0.6 mi SSW 39.1 mph 46.0 mph N/A   Clear
5:30 AM 24.8 °F 6.6 °F 21.2 °F 86% 29.84 in 1.0 mi SSW 35.7 mph 41.4 mph N/A   Clear
5:46 AM 24.8 °F 7.6 °F 21.2 °F 86% 29.85 in 2.5 mi SW 31.1 mph 36.8 mph N/A   Clear
6:00 AM 24.8 °F 6.8 °F 21.2 °F 86% 29.86 in 2.0 mi SW 34.5 mph - N/A   Clear
6:33 AM 26.6 °F 11.7 °F 21.2 °F 80% 29.85 in 6.0 mi SW 24.2 mph 34.5 mph N/A   Clear
6:51 AM 24.8 °F 7.6 °F 21.2 °F 86% 29.84 in 2.4 mi WSW 31.1 mph 40.3 mph N/A   Clear
7:00 AM 24.8 °F 7.9 °F 21.2 °F 86% 29.85 in 1.6 mi SW 29.9 mph 35.7 mph N/A   Clear
7:04 AM 24.8 °F 7.1 °F 21.2 °F 86% 29.84 in 1.4 mi SW 33.4 mph - N/A   Clear
7:27 AM 24.8 °F 8.1 °F 21.2 °F 86% 29.84 in 3.0 mi SW 28.8 mph 39.1 mph N/A   Clear
7:31 AM 24.8 °F 7.6 °F 21.2 °F 86% 29.84 in 2.4 mi SW 31.1 mph 39.1 mph N/A   Clear
7:49 AM 26.6 °F 9.8 °F 21.2 °F 80% 29.84 in 5.0 mi SW 32.2 mph 38.0 mph N/A   Clear
7:56 AM 24.8 °F 7.9 °F 21.2 °F 86% 29.84 in 2.4 mi SW 29.9 mph 36.8 mph N/A   Clear
8:15 AM 26.6 °F 10.3 °F 21.2 °F 80% 29.83 in 7.0 mi SW 29.9 mph 36.8 mph N/A   Clear
9:00 AM 26 °F - 21 °F 74% 29.84 in 3 mi SW 33.4 mph - -  
9:00 AM 24.8 °F 7.9 °F 21.2 °F 86% 29.84 in 3.5 mi SSW 29.9 mph 40.3 mph N/A   Clear
9:11 AM 26.6 °F 10.0 °F 21.2 °F 80% 29.82 in 1.8 mi SW 31.1 mph 38.0 mph N/A   Clear
9:12 AM 24.8 °F 7.1 °F 21.2 °F 86% 29.82 in 1.2 mi SW 33.4 mph - N/A   Clear
9:17 AM 24.8 °F 6.6 °F 21.2 °F 86% 29.82 in 1.0 mi SSW 35.7 mph 42.6 mph N/A   Clear
9:27 AM 26.6 °F 11.1 °F 21.2 °F 80% 29.83 in 1.5 mi SW 26.5 mph 41.4 mph N/A   Clear
9:42 AM 26.6 °F 10.6 °F 19.4 °F 74% 29.82 in 9.0 mi SSW 28.8 mph 34.5 mph N/A   Clear
9:59 AM 24.8 °F 6.4 °F 21.2 °F 86% 29.80 in 2.0 mi SW 36.8 mph - N/A   Clear
10:00 AM 24.8 °F 6.2 °F 21.2 °F 86% 29.81 in 1.4 mi SW 38.0 mph - N/A   Clear
10:19 AM 24.8 °F 7.3 °F 21.2 °F 86% 29.80 in 2.0 mi SW 32.2 mph 40.3 mph N/A   Clear
10:30 AM 24.8 °F 7.9 °F 21.2 °F 86% 29.80 in 1.4 mi SW 29.9 mph 40.3 mph N/A   Clear
11:00 AM 24.8 °F 5.1 °F 23.0 °F 93% 29.80 in 15.0 mi SW 43.7 mph - N/A Snow Low Drifting Snow
12:00 PM 26 °F - 20 °F 69% 29.83 in 9 mi SW 17.3 mph - -  
12:00 PM 26.6 °F 12.7 °F 19.4 °F 74% 29.83 in 25.0 mi SW 20.7 mph 28.8 mph N/A Snow Low Drifting Snow
1:00 PM 26.6 °F 11.4 °F 21.2 °F 80% 29.81 in 25.0 mi SW 25.3 mph 31.1 mph N/A Snow Low Drifting Snow
2:00 PM 26.6 °F 13.1 °F 19.4 °F 74% 29.82 in 25.0 mi WSW 19.6 mph - N/A Snow Low Drifting Snow
3:00 PM 26 °F - 19 °F 64% 29.84 in 9 mi SSW 8.1 mph - -  
3:00 PM 26.6 °F 17.5 °F 19.4 °F 74% 29.84 in 25.0 mi SSW 9.2 mph - N/A   Overcast
5:00 PM 23.0 °F 17.0 °F 17.6 °F 80% 29.87 in 25.0 mi NNE 4.6 mph - N/A   Overcast
6:00 PM 24 °F - 17 °F 64% 29.88 in 9 mi West 4.6 mph - -  
6:00 PM 23.0 °F 14.7 °F 17.6 °F 80% 29.88 in 25.0 mi West 6.9 mph - N/A   Overcast
7:00 PM 23.0 °F - 17.6 °F 80% 29.90 in 25.0 mi NW 2.3 mph - N/A   Overcast
8:00 PM 23.0 °F 13.1 °F 14.0 °F 68% 29.91 in 25.0 mi WSW 9.2 mph - N/A   Overcast
9:00 PM 24 °F - 15 °F 56% 29.91 in 9 mi WSW 5.8 mph - -  
9:00 PM 24.8 °F 16.9 °F 14.0 °F 64% 29.91 in 9.0 mi SW 6.9 mph - N/A   Mostly Cloudy
11:00 PM 21.2 °F 16.4 °F 14.0 °F 74% 29.93 in 9.0 mi West 3.5 mph - N/A   Mostly Cloudy